Location: ????????
(55.6189°N, 38.3031°E)
Time: 07:21:46
(UTC+00:00)

Cosmos 158 Rocket - Pass Details

Date: 15 November 2019
Orbit: 699 x 792 km, 74.0° (Epoch: 13 December)

Event Time Altitude Azimuth Distance (km) Brightness Sun altitude
Exits shadow 02:38:02 41° 287° (WNW) 1,036 4.2 -19.7°
Maximum altitude 02:39:03 48° 251° (WSW) 939 4.0 -19.6°
Drops below altitude 10° 02:43:45 10° 178° (S) 2,174 6.4 -18.9°
Sets 02:46:06 0° 173° (S) 3,081 7.3 -18.6°
